Weather History for Sturgeon Bay, WI

Change the Weather History Date:

Tuesday, January 22, 2013

  Actual Average Record
Temperature  
Mean Temperature -2 °F -  
Max Temperature 3 °F 29 °F 42 °F (1916)
Min Temperature -7 °F 14 °F -16 °F (1930)
Degree Days  
Heating Degree Days 67    
Moisture  
Dew Point -15 °F    
Average Humidity 56    
Maximum Humidity 65    
Minimum Humidity 43    
Precipitation  
Precipitation 0.00 in - - ()
Sea Level Pressure  
Sea Level Pressure 30.22 in    
Wind  
Wind Speed 12 mph (WNW)    
Max Wind Speed 17 mph    
Max Gust Speed 24 mph    
Visibility 10 miles    
Events      
Averages and records for this station are not official NWS values.
T = Trace of Precipitation, MM = Missing Value Source: NWS Daily Summary

Daily Weather History Graph

Daily Weather History Graph

Search for Another Location

Airport:

Trip Planner

Search our weather history database for the weather conditions in past years. The results will help you decide how hot, cold, wet, or windy it might be!

Date:

Astronomy

Jan. 22, 2013 Rise Set
Actual Time 7:18 AM CST 4:44 PM CST
Civil Twilight 6:46 AM CST 5:16 PM CST
Nautical Twilight 6:11 AM CST 5:52 PM CST
Astronomical Twilight 5:36 AM CST 6:26 PM CST
Moon 1:05 PM CST (1/22) 3:41 AM CST (1/22)
Length of Visible Light 10h 29m
Length of Day
9h 25m
Waxing Gibbous, 83% of the Moon is Illuminated
Jan 22
Waxing Gibbous
Jan 26
Full
Feb 3
Last Quarter
Feb 10
New
Feb 17
First Quarter

Hourly Weather History & Observations

Time (CST) Temp. Windchill Dew Point Humidity Pressure Visibility Wind Dir Wind Speed Gust Speed Precip Events Conditions
12:15 AM -7.6 °F -30.5 °F -20.2 °F 54% 30.15 in 10.0 mi WNW 17.3 mph 23.0 mph N/A   Clear
12:35 AM -7.6 °F -26.6 °F -18.4 °F 59% 30.16 in 10.0 mi WNW 11.5 mph 20.7 mph N/A   Clear
12:55 AM -7.6 °F -29.8 °F -18.4 °F 59% 30.16 in 10.0 mi WNW 16.1 mph 24.2 mph N/A   Clear
1:15 AM -7.6 °F -25.7 °F -18.4 °F 59% 30.16 in 10.0 mi WNW 10.4 mph - N/A   Clear
1:35 AM -7.6 °F -29.1 °F -18.4 °F 59% 30.17 in 10.0 mi WNW 15.0 mph 20.7 mph N/A   Clear
1:55 AM -7.6 °F -30.5 °F -18.4 °F 59% 30.17 in 10.0 mi WNW 17.3 mph - N/A   Clear
2:15 AM -7.6 °F -25.7 °F -16.6 °F 65% 30.18 in 10.0 mi WNW 10.4 mph - N/A   Clear
2:35 AM -7.6 °F -26.6 °F -18.4 °F 59% 30.18 in 10.0 mi WNW 11.5 mph 18.4 mph N/A   Clear
2:55 AM -7.6 °F -29.1 °F -18.4 °F 59% 30.18 in 10.0 mi WNW 15.0 mph - N/A   Clear
3:15 AM -7.6 °F -27.5 °F -16.6 °F 65% 30.18 in 10.0 mi WNW 12.7 mph 19.6 mph N/A   Clear
3:35 AM -7.6 °F -28.3 °F -16.6 °F 65% 30.18 in 10.0 mi WNW 13.8 mph - N/A   Clear
3:55 AM -7.6 °F -28.3 °F -16.6 °F 65% 30.19 in 10.0 mi WNW 13.8 mph 19.6 mph N/A   Clear
4:15 AM -7.6 °F -26.6 °F -18.4 °F 59% 30.19 in 10.0 mi WNW 11.5 mph 18.4 mph N/A   Clear
4:35 AM -7.6 °F -27.5 °F -16.6 °F 65% 30.19 in 10.0 mi WNW 12.7 mph 18.4 mph N/A   Clear
4:55 AM -7.6 °F -28.3 °F -18.4 °F 59% 30.19 in 10.0 mi WNW 13.8 mph 18.4 mph N/A   Clear
5:15 AM -7.6 °F -27.5 °F -16.6 °F 65% 30.19 in 10.0 mi WNW 12.7 mph 19.6 mph N/A   Clear
5:35 AM -7.6 °F -27.5 °F -18.4 °F 59% 30.20 in 10.0 mi WNW 12.7 mph - N/A   Clear
5:55 AM -7.6 °F -26.6 °F -18.4 °F 59% 30.20 in 10.0 mi WNW 11.5 mph - N/A   Clear
6:15 AM -7.6 °F -24.6 °F -16.6 °F 65% 30.20 in 10.0 mi WNW 9.2 mph - N/A   Clear
6:35 AM -7.6 °F -26.6 °F -16.6 °F 65% 30.21 in 10.0 mi WNW 11.5 mph - N/A   Clear
6:55 AM -7.6 °F -23.4 °F -16.6 °F 65% 30.21 in 10.0 mi WNW 8.1 mph - N/A   Clear
7:15 AM -7.6 °F -23.4 °F -16.6 °F 65% 30.22 in 10.0 mi WNW 8.1 mph - N/A   Clear
7:35 AM -7.6 °F -24.6 °F -16.6 °F 65% 30.22 in 10.0 mi West 9.2 mph - N/A   Clear
7:55 AM -7.6 °F -25.7 °F -16.6 °F 65% 30.23 in 10.0 mi West 10.4 mph - N/A   Clear
8:15 AM -7.6 °F -26.6 °F -16.6 °F 65% 30.23 in 10.0 mi WNW 11.5 mph - N/A   Clear
8:35 AM -5.8 °F -23.4 °F -16.6 °F 60% 30.23 in 10.0 mi WNW 10.4 mph - N/A   Clear
8:55 AM -5.8 °F -26.0 °F -16.6 °F 60% 30.24 in 10.0 mi WNW 13.8 mph - N/A   Clear
9:15 AM -5.8 °F -25.2 °F -16.6 °F 60% 30.24 in 10.0 mi WNW 12.7 mph 17.3 mph N/A   Clear
9:35 AM -5.8 °F -24.4 °F -14.8 °F 65% 30.24 in 10.0 mi WNW 11.5 mph 17.3 mph N/A   Clear
9:55 AM -4.0 °F -22.1 °F -14.8 °F 60% 30.25 in 10.0 mi West 11.5 mph - N/A   Clear
10:15 AM -4.0 °F -21.2 °F -14.8 °F 60% 30.25 in 10.0 mi West 10.4 mph - N/A   Clear
10:35 AM -2.2 °F -19.9 °F -14.8 °F 55% 30.25 in 10.0 mi WNW 11.5 mph - N/A   Clear
10:55 AM -2.2 °F -19.9 °F -14.8 °F 55% 30.25 in 10.0 mi WNW 11.5 mph - N/A   Clear
11:15 AM -2.2 °F -20.7 °F -14.8 °F 55% 30.24 in 10.0 mi West 12.7 mph - N/A   Clear
11:35 AM -0.4 °F -18.4 °F -14.8 °F 51% 30.24 in 10.0 mi WNW 12.7 mph - N/A   Clear
11:55 AM -0.4 °F -18.4 °F -13.0 °F 55% 30.24 in 10.0 mi West 12.7 mph 18.4 mph N/A   Clear
12:15 PM -0.4 °F -18.4 °F -13.0 °F 55% 30.24 in 10.0 mi WNW 12.7 mph 20.7 mph N/A   Clear
12:35 PM -0.4 °F -19.2 °F -13.0 °F 55% 30.23 in 10.0 mi WNW 13.8 mph 17.3 mph N/A   Clear
12:55 PM 1.4 °F -15.3 °F -13.0 °F 51% 30.22 in 10.0 mi West 11.5 mph 17.3 mph N/A   Clear
1:15 PM 1.4 °F -16.9 °F -13.0 °F 51% 30.22 in 10.0 mi West 13.8 mph 18.4 mph N/A   Clear
1:35 PM 1.4 °F -16.1 °F -14.8 °F 47% 30.22 in 10.0 mi West 12.7 mph 17.3 mph N/A   Clear
1:55 PM 1.4 °F -15.3 °F -14.8 °F 47% 30.22 in 10.0 mi West 11.5 mph - N/A   Clear
2:15 PM 1.4 °F -15.3 °F -14.8 °F 47% 30.22 in 10.0 mi West 11.5 mph 17.3 mph N/A   Clear
2:35 PM 3.2 °F -12.2 °F -14.8 °F 43% 30.23 in 10.0 mi WNW 10.4 mph - N/A   Clear
2:55 PM 3.2 °F -12.2 °F -13.0 °F 47% 30.23 in 10.0 mi WNW 10.4 mph - N/A   Clear
3:15 PM 3.2 °F -13.1 °F -14.8 °F 43% 30.23 in 10.0 mi WNW 11.5 mph 17.3 mph N/A   Clear
3:35 PM 3.2 °F -13.9 °F -14.8 °F 43% 30.23 in 10.0 mi West 12.7 mph - N/A   Clear
3:55 PM 3.2 °F -10.3 °F -14.8 °F 43% 30.23 in 10.0 mi WNW 8.1 mph - N/A   Clear
4:15 PM 3.2 °F -12.2 °F -14.8 °F 43% 30.23 in 10.0 mi WNW 10.4 mph - N/A   Clear
4:35 PM 3.2 °F -12.2 °F -14.8 °F 43% 30.23 in 10.0 mi West 10.4 mph - N/A   Clear
4:55 PM 1.4 °F -12.5 °F -14.8 °F 47% 30.24 in 10.0 mi WNW 8.1 mph - N/A   Clear
5:15 PM 1.4 °F -11.3 °F -14.8 °F 47% 30.24 in 10.0 mi WNW 6.9 mph - N/A   Clear
5:35 PM 1.4 °F -9.9 °F -13.0 °F 51% 30.24 in 10.0 mi WNW 5.8 mph - N/A   Clear
5:55 PM 1.4 °F -12.5 °F -13.0 °F 51% 30.25 in 10.0 mi West 8.1 mph - N/A   Clear
6:15 PM 1.4 °F -13.5 °F -13.0 °F 51% 30.24 in 10.0 mi West 9.2 mph - N/A   Clear
6:35 PM 1.4 °F -13.5 °F -13.0 °F 51% 30.24 in 10.0 mi West 9.2 mph - N/A   Clear
6:55 PM 1.4 °F -13.5 °F -13.0 °F 51% 30.24 in 10.0 mi West 9.2 mph - N/A   Clear
7:15 PM 1.4 °F -14.5 °F -13.0 °F 51% 30.24 in 10.0 mi West 10.4 mph - N/A   Clear
7:35 PM 1.4 °F -14.5 °F -13.0 °F 51% 30.24 in 10.0 mi West 10.4 mph - N/A   Clear
7:55 PM 1.4 °F -15.3 °F -11.2 °F 56% 30.24 in 10.0 mi West 11.5 mph - N/A   Clear
8:15 PM 1.4 °F -13.5 °F -13.0 °F 51% 30.23 in 10.0 mi WNW 9.2 mph - N/A   Clear
8:35 PM 1.4 °F -13.5 °F -11.2 °F 56% 30.23 in 10.0 mi West 9.2 mph - N/A   Mostly Cloudy
8:55 PM 1.4 °F -14.5 °F -11.2 °F 56% 30.23 in 10.0 mi West 10.4 mph 17.3 mph N/A   Overcast
9:15 PM 1.4 °F -13.5 °F -11.2 °F 56% 30.23 in 10.0 mi West 9.2 mph - N/A   Scattered Clouds
9:35 PM 1.4 °F -13.5 °F -11.2 °F 56% 30.23 in 10.0 mi West 9.2 mph - N/A   Scattered Clouds
9:55 PM 1.4 °F -12.5 °F -11.2 °F 56% 30.23 in 10.0 mi West 8.1 mph - N/A   Scattered Clouds
10:15 PM 1.4 °F -14.5 °F -11.2 °F 56% 30.23 in 10.0 mi West 10.4 mph - N/A   Partly Cloudy
10:35 PM 1.4 °F -12.5 °F -9.4 °F 61% 30.22 in 10.0 mi West 8.1 mph - N/A   Clear
10:55 PM 1.4 °F -13.5 °F -9.4 °F 61% 30.22 in 10.0 mi WSW 9.2 mph - N/A   Partly Cloudy
11:15 PM 1.4 °F -12.5 °F -11.2 °F 56% 30.22 in 10.0 mi West 8.1 mph - N/A   Scattered Clouds
11:35 PM 1.4 °F -15.3 °F -9.4 °F 61% 30.22 in 10.0 mi West 11.5 mph - N/A   Scattered Clouds
11:55 PM -0.4 °F -15.7 °F -11.2 °F 60% 30.22 in 10.0 mi West 9.2 mph - N/A   Partly Cloudy